AEHF 2 (USA 235)

导读 | 豆包AI

AEHF-2(又称USA 235)是美国研制发射的第二颗先进极高频(AEHF)军事通信卫星,于2012年5月4日发射升空。它为美国军方提供高安全性、抗干扰的全球通信服务,替代老旧的军事星系统,传输速率和容量大幅提升,可支持核指挥控制、特种作战等关键任务,是美国战略和战术通信网络的核心空间节点,显著增强了美军全球保密通信能力。

基本信息
目录编号:
38254
目录名称:
AEHF 2 (USA 235)
国际标识:
2012-019A
轨道中心:
EARTH
卫星名称:
AEHF 2 (USA 235)
卫星全名:
--
卫星状态:
在轨 (已飞行5110 天)
发射日期:
2012-05-04 UTC
国别 :
美国 (US)
星等 :
--
轨道信息
数据来源 国际轨道数据 AOE轨道数据
星历时间 2026-04-30T23:01:46+0800
21小时前
查看轨道信息
2026-05-01T06:00:00+0800
14小时前
查看轨道信息
半长轴 42164.364km 42164.7km
偏心率 0.0002564 0.0002615
轨道倾角 6.542° 6.543°
近地点辐角 332.112° 329.476°
升交点赤经 57.831° 57.831°
平近点角 37.571° 145.045°
近地点 35775.416km 35775.536km
远地点 35797.038km 35797.59km
周期 1436.078分钟 1436.095分钟
每日圈数 1.002731 1.002719
详细信息
使用方式:
暂无
2D轨道图
3D轨道图
轨道高度分析图
轨道倾角分析图
轨道综合分析图
查看轨道综合分析图